Location: Wapato
(46.4478°N, 120.4212°W)
Time: 14:47:41
(UTC+00:00)

Explorer 7 - Pass Details

Date: 17 May 2026
Orbit: 426 x 534 km, 50.2° (Epoch: 8 June)

Event Time Altitude Azimuth Distance (km) Brightness Sun altitude
Rises 18:15:55 0° 289° (WNW) 2,562 9.9 55.8°
Reaches altitude 10° 18:18:15 10° 279° (W) 1,698 9.2 56.1°
Maximum altitude 18:21:37 29° 217° (SW) 948 8.5 56.5°
Drops below altitude 10° 18:25:05 10° 157° (SSE) 1,742 10.1 57.0°
Sets 18:27:30 0° 146° (SE) 2,641 10.8 57.2°
